Location: Campestrin
(46.4667°N, 11.7167°E)
Time: 03:50:02
(UTC+00:00)

ATLAS 3B R/B - Pass Details

Date: 18 April 2021
Orbit: 1006 x 1189 km, 63.8° (Epoch: 21 April)

Event Time Altitude Azimuth Distance (km) Brightness Sun altitude
Rises 20:40:38 0° 316° (NW) 3,903 7.1 -23.1°
Reaches altitude 10° 20:43:28 10° 308° (NW) 2,971 6.1 -23.5°
Maximum altitude 20:49:46 36° 246° (WSW) 1,733 3.9 -24.2°
Enters shadow 20:53:12 24° 200° (SSW) 2,201 4.0 -24.5°
